Change the Weather History Date:

Wednesday, April 17, 2013

  Actual Average (KBOI) Record (KBOI)
Temperature  
Mean Temperature 42 °F 51 °F  
Max Temperature 53 °F 63 °F 88 °F (1936)
Min Temperature 32 °F 39 °F 21 °F (1964)
Degree Days  
Heating Degree Days 22 14  
Month to date heating degree days 267  
Since 1 July heating degree days 5062  
Cooling Degree Days 0 0  
Month to date cooling degree days 0  
Year to date cooling degree days 0  
Moisture  
Dew Point 12 °F    
Average Humidity 32    
Maximum Humidity 55    
Minimum Humidity 14    
Precipitation  
Precipitation 0.00 in 0.04 in 0.52 in (1955)
Month to date precipitation 0.68  
Year to date precipitation 4.30  
Snow  
Snow 0.00 in 0.00 in T in (1992)
Month to date snowfall 0.3  
Since 1 July snowfall 19.2  
Snow Depth -    
Sea Level Pressure  
Sea Level Pressure 30.23 in    
Wind  
Wind Speed 14 mph (NW)    
Max Wind Speed 22 mph    
Max Gust Speed 29 mph    
Visibility 10 miles    
Events      
T = Trace of Precipitation, MM = Missing Value Source: NWS Daily Summary

Daily Weather History Graph

Daily Weather History Graph

Search for Another Location

Airport or City:

Trip Planner

Search our weather history database for the weather conditions in past years. The results will help you decide how hot, cold, wet, or windy it might be!

Date:

Astronomy

Apr. 17, 2013 Rise Set
Actual Time 6:59 AM MDT 8:32 PM MDT
Civil Twilight 6:29 AM MDT 9:02 PM MDT
Nautical Twilight 5:53 AM MDT 9:38 PM MDT
Astronomical Twilight 5:14 AM MDT 10:17 PM MDT
Moon 12:14 PM MDT (4/17) 2:16 AM MDT (4/17)
Length of Visible Light 14h 32m
Length of Day
13h 32m
Waxing Crescent, 43% of the Moon is Illuminated
Apr 17
Waxing Crescent
Apr 18
First Quarter
Apr 25
Full
May 2
Last Quarter
May 9
New

Hourly Weather History & Observations

Time (MDT) Temp. Windchill Dew Point Humidity Pressure Visibility Wind Dir Wind Speed Gust Speed Precip Events Conditions
12:15 AM 35.6 °F 25.9 °F 17.6 °F 48% 30.14 in 10.0 mi WNW 16.1 mph 21.9 mph N/A   Clear
12:35 AM 35.6 °F 27.1 °F 17.6 °F 48% 30.15 in 10.0 mi WNW 12.7 mph 21.9 mph N/A   Clear
12:55 AM 35.6 °F 27.1 °F 17.6 °F 48% 30.15 in 10.0 mi WNW 12.7 mph - N/A   Clear
1:15 AM 35.6 °F 26.2 °F 17.6 °F 48% 30.15 in 10.0 mi WNW 15.0 mph 20.7 mph N/A   Clear
1:35 AM 35.6 °F 26.2 °F 17.6 °F 48% 30.16 in 10.0 mi NW 15.0 mph 20.7 mph N/A   Clear
1:55 AM 35.6 °F 26.6 °F 17.6 °F 48% 30.16 in 10.0 mi NW 13.8 mph 20.7 mph N/A   Clear
2:15 AM 35.6 °F 26.6 °F 17.6 °F 48% 30.17 in 10.0 mi NW 13.8 mph 19.6 mph N/A   Clear
2:35 AM 33.8 °F 24.8 °F 17.6 °F 52% 30.17 in 10.0 mi WNW 12.7 mph - N/A   Clear
3:15 AM 33.8 °F 25.3 °F 17.6 °F 52% 30.17 in 10.0 mi NW 11.5 mph - N/A   Clear
3:35 AM 33.8 °F 24.3 °F 17.6 °F 52% 30.17 in 10.0 mi NW 13.8 mph 19.6 mph N/A   Clear
3:55 AM 33.8 °F 25.3 °F 17.6 °F 52% 30.18 in 10.0 mi NW 11.5 mph 19.6 mph N/A   Clear
4:15 AM 32.0 °F 22.1 °F 17.6 °F 55% 30.18 in 10.0 mi NW 13.8 mph - N/A   Clear
4:35 AM 32.0 °F 22.5 °F 17.6 °F 55% 30.18 in 10.0 mi NW 12.7 mph 21.9 mph N/A   Clear
4:55 AM 32.0 °F 22.1 °F 17.6 °F 55% 30.19 in 10.0 mi NW 13.8 mph 18.4 mph N/A   Clear
5:15 AM 32.0 °F 22.1 °F 17.6 °F 55% 30.19 in 10.0 mi NW 13.8 mph 19.6 mph N/A   Clear
5:35 AM 32.0 °F 23.6 °F 17.6 °F 55% 30.19 in 10.0 mi NW 10.4 mph - N/A   Clear
5:55 AM 32.0 °F 23.0 °F 17.6 °F 55% 30.20 in 10.0 mi NW 11.5 mph - N/A   Clear
6:15 AM 32.0 °F - 17.6 °F 55% 30.20 in 10.0 mi North - - N/A   Clear
6:35 AM 32.0 °F 23.0 °F 17.6 °F 55% 30.21 in 10.0 mi WNW 11.5 mph - N/A   Clear
6:55 AM 32.0 °F 23.0 °F 15.8 °F 51% 30.22 in 10.0 mi WNW 11.5 mph - N/A   Clear
7:15 AM 32.0 °F 22.1 °F 17.6 °F 55% 30.22 in 10.0 mi WNW 13.8 mph - N/A   Clear
7:55 AM 32.0 °F 23.6 °F 15.8 °F 51% 30.24 in 10.0 mi WNW 10.4 mph - N/A   Clear
8:15 AM 35.6 °F 28.0 °F 15.8 °F 44% 30.25 in 10.0 mi WNW 10.4 mph - N/A   Clear
8:35 AM 35.6 °F 25.9 °F 15.8 °F 44% 30.25 in 10.0 mi NW 16.1 mph 20.7 mph N/A   Clear
8:55 AM 37.4 °F 28.2 °F 15.8 °F 41% 30.26 in 10.0 mi NW 16.1 mph - N/A   Clear
9:15 AM 37.4 °F 28.5 °F 15.8 °F 41% 30.26 in 10.0 mi NW 15.0 mph 23.0 mph N/A   Clear
9:35 AM 39.2 °F 30.8 °F 15.8 °F 39% 30.26 in 10.0 mi NNW 15.0 mph 23.0 mph N/A   Clear
9:55 AM 41.0 °F 32.2 °F 14.0 °F 33% 30.26 in 10.0 mi NW 18.4 mph 23.0 mph N/A   Clear
10:15 AM 41.0 °F 32.8 °F 14.0 °F 33% 30.26 in 10.0 mi NW 16.1 mph 24.2 mph N/A   Clear
10:35 AM 44.6 °F 37.4 °F 12.2 °F 27% 30.26 in 10.0 mi NNW 16.1 mph 24.2 mph N/A   Clear
10:55 AM 44.6 °F 38.1 °F 10.4 °F 25% 30.26 in 10.0 mi NNW 13.8 mph 24.2 mph N/A   Clear
11:15 AM 46.4 °F 39.8 °F 8.6 °F 22% 30.26 in 10.0 mi NNW 16.1 mph 23.0 mph N/A   Clear
11:35 AM 46.4 °F 39.8 °F 8.6 °F 22% 30.26 in 10.0 mi North 16.1 mph 25.3 mph N/A   Clear
11:55 AM 46.4 °F 39.2 °F 6.8 °F 20% 30.27 in 10.0 mi NNW 18.4 mph 25.3 mph N/A   Clear
12:15 PM 48.2 °F - 6.8 °F 19% 30.26 in 10.0 mi NNW 16.1 mph 25.3 mph N/A   Clear
12:35 PM 48.2 °F - 6.8 °F 19% 30.26 in 10.0 mi NNW 18.4 mph 24.2 mph N/A   Clear
12:55 PM 48.2 °F - 6.8 °F 19% 30.26 in 10.0 mi North 12.7 mph 20.7 mph N/A   Clear
1:15 PM 50.0 °F - 6.8 °F 17% 30.26 in 10.0 mi NNW 20.7 mph 26.5 mph N/A   Clear
1:35 PM 50.0 °F - 6.8 °F 17% 30.25 in 10.0 mi NNW 16.1 mph 27.6 mph N/A   Clear
2:15 PM 50.0 °F - 8.6 °F 19% 30.24 in 10.0 mi WNW 18.4 mph 27.6 mph N/A   Partly Cloudy
2:35 PM 50.0 °F - 8.6 °F 19% 30.24 in 10.0 mi NW 16.1 mph 25.3 mph N/A   Clear
2:55 PM 51.8 °F - 8.6 °F 18% 30.24 in 10.0 mi NNW 17.3 mph 24.2 mph N/A   Clear
3:15 PM 51.8 °F - 8.6 °F 18% 30.23 in 10.0 mi NW 17.3 mph 25.3 mph N/A   Clear
3:35 PM 51.8 °F - 8.6 °F 18% 30.23 in 10.0 mi NNW 17.3 mph 23.0 mph N/A   Clear
3:55 PM 51.8 °F - 8.6 °F 18% 30.23 in 10.0 mi NW 18.4 mph 26.5 mph N/A   Clear
4:15 PM 51.8 °F - 8.6 °F 18% 30.22 in 10.0 mi NW 18.4 mph 25.3 mph N/A   Clear
4:35 PM 53.6 °F - 8.6 °F 16% 30.22 in 10.0 mi NW 17.3 mph 27.6 mph N/A   Clear
4:55 PM 53.6 °F - 6.8 °F 15% 30.22 in 10.0 mi NNW 20.7 mph 27.6 mph N/A   Clear
5:15 PM 53.6 °F - 6.8 °F 15% 30.22 in 10.0 mi NW 17.3 mph 25.3 mph N/A   Clear
5:35 PM 53.6 °F - 6.8 °F 15% 30.22 in 10.0 mi NNW 15.0 mph 26.5 mph N/A   Clear
5:55 PM 53.6 °F - 5.0 °F 14% 30.22 in 10.0 mi NW 17.3 mph 28.8 mph N/A   Clear
6:15 PM 53.6 °F - 5.0 °F 14% 30.22 in 10.0 mi NW 21.9 mph 27.6 mph N/A   Clear
6:35 PM 53.6 °F - 6.8 °F 15% 30.22 in 10.0 mi NNW 15.0 mph 21.9 mph N/A   Clear
6:55 PM 51.8 °F - 5.0 °F 15% 30.23 in 10.0 mi NNW 12.7 mph 21.9 mph N/A   Clear
7:15 PM 51.8 °F - 5.0 °F 15% 30.23 in 10.0 mi NNW 20.7 mph 25.3 mph N/A   Clear
7:55 PM 50.0 °F - 5.0 °F 16% 30.24 in 10.0 mi NNW 11.5 mph 19.6 mph N/A   Clear
8:15 PM 48.2 °F - 6.8 °F 19% 30.25 in 10.0 mi NNW 10.4 mph - N/A   Clear
8:35 PM 46.4 °F 41.5 °F 6.8 °F 20% 30.26 in 10.0 mi NNW 10.4 mph - N/A   Clear
8:55 PM 46.4 °F 41.9 °F 6.8 °F 20% 30.27 in 10.0 mi NNW 9.2 mph - N/A   Clear
9:15 PM 44.6 °F 40.2 °F 6.8 °F 21% 30.27 in 10.0 mi NNW 8.1 mph - N/A   Clear
9:35 PM 44.6 °F 40.7 °F 8.6 °F 23% 30.28 in 10.0 mi NNW 6.9 mph - N/A   Clear
9:55 PM 42.8 °F 38.6 °F 8.6 °F 25% 30.28 in 10.0 mi NNW 6.9 mph - N/A   Clear
10:15 PM 41.0 °F 36.4 °F 8.6 °F 26% 30.29 in 10.0 mi NW 6.9 mph - N/A   Clear
10:35 PM 41.0 °F 35.8 °F 10.4 °F 29% 30.29 in 10.0 mi NNW 8.1 mph - N/A   Clear
10:55 PM 41.0 °F 35.2 °F 10.4 °F 29% 30.30 in 10.0 mi NW 9.2 mph - N/A   Clear
11:15 PM 41.0 °F 35.2 °F 10.4 °F 29% 30.30 in 10.0 mi NNW 9.2 mph - N/A   Clear
11:35 PM 39.2 °F 34.2 °F 10.4 °F 31% 30.30 in 10.0 mi NW 6.9 mph - N/A   Clear
11:55 PM 39.2 °F 33.0 °F 14.0 °F 36% 30.30 in 10.0 mi NW 9.2 mph - N/A   Clear